Location: Sungai Bunut
(2.6333°N, 113.7333°E)
Time: 16:39:27
(UTC+00:00)

Altair - Pass Details

Date: 03 December 2023
Orbit: 1501 x 1682 km, 47.2° (Epoch: 24 February)

Event Time Altitude Azimuth Distance (km) Brightness Sun altitude
Rises 10:31:53 0° 309° (NW) 4,626 10.4 -5.0°
Reaches altitude 10° 10:34:58 10° 305° (NW) 3,654 10.0 -5.7°
Maximum altitude 10:43:49 53° 231° (SW) 1,825 8.4 -7.7°
Drops below altitude 10° 10:52:59 10° 156° (SSE) 3,766 9.5 -9.8°
Sets 10:56:14 0° 151° (SSE) 4,777 10.0 -10.6°
